Overview Statistics Trail Chart Weather Telemetry Raw packets
 

This is the latest recevied weather packets stored in our database for station/object DC5DM-13. If no packets are shown the sender has not sent any weather packets the latest 10 day(s).

<< 2 3 4 5 6 7 8 >>
Time Temp. Humidity Pressure Rain* Wind** Luminosity Snow
1788523546 23.33° C 76% 1013.2 hPa 0 mm - - -
1788522976 23.33° C 76% 1013.1 hPa 0 mm - - -
1788522345 23.89° C 76% 1013.3 hPa 0 mm - - -
1788521776 23.89° C 77% 1013.3 hPa 0 mm - - -
1788521146 23.33° C 79% 1013.4 hPa 0 mm - - -
1788520576 23.33° C 79% 1013.7 hPa 0 mm - - -
1788519946 23.33° C 79% 1013.6 hPa 0 mm - - -
1788519407 22.78° C 81% 1014 hPa 0 mm - - -
1788518746 22.78° C 81% 1014 hPa 0 mm - - -
1788518176 22.78° C 82% 1014 hPa 0 mm - - -
1788517551 22.22° C 83% 1014.2 hPa 0 mm - - -
1788516976 21.67° C 85% 1014.5 hPa 0 mm - - -
1788516346 21.67° C 85% 1014.5 hPa 0 mm - - -
1788515776 21.67° C 86% 1014.5 hPa 0 mm - - -
1788515146 21.11° C 87% 1014.5 hPa 0 mm - - -
1788514576 21.11° C 87% 1014.6 hPa 0 mm - - -
1788513946 21.11° C 88% 1014.7 hPa 0 mm - - -
1788513376 21.11° C 88% 1014.7 hPa 0 mm - - -
1788512746 21.11° C 88% 1014.7 hPa 0 mm - - -
1788512177 20.56° C 90% 1014.7 hPa 0 mm - - -
1788511540 20.56° C 90% 1014.7 hPa 0 mm - - -
1788510975 20.56° C 90% 1014.7 hPa 0 mm - - -
1788510338 20° C 92% 1014.8 hPa 0 mm - - -
1788509770 20° C 93% 1015 hPa 0 mm - - -
1788509139 19.44° C 93% 1015.2 hPa 0 mm - - -

* Rain latest hour (hover to see other rain measurements)
** Current wind speed in m/s (hover to see current wind gust speed)